Location: Rounton
(54.4000°N, 1.3500°W)
Time: 17:50:22
(UTC+00:00)

Tiros 1 - Pass Details

Date: 08 December 2021
Orbit: 629 x 664 km, 48.4° (Epoch: 19 January)

Event Time Altitude Azimuth Distance (km) Brightness Sun altitude
Rises 18:46:50 0° 244° (WSW) 2,920 11.6 -25.4°
Reaches altitude 10° 18:49:16 10° 236° (SW) 2,017 10.4 -25.8°
Enters shadow 18:52:49 35° 190° (S) 1,040 8.2 -26.3°
